Home > Weather > Tuzla > Past weeks

Flag for Bosnia-Herzegovina Weather for the Past 2 Weeks in Tuzla, Bosnia-Herzegovina

Now
66 °F

Partly sunny.


Feels Like: 66 °F
Forecast: 52 / 65 °F
Wind: 6 mph from Southeast

Location: Tuzla

Current Time: Feb 14, 2016 at 3:54:19 PM

Latest Report: Feb 14, 2016 at 3:00 PM


Visibility: N/A

Pressure: 29.39 "Hg

Humidity: 32%

Dew point: 36 °F

Location of TuzlaLocation

Historic Weather in Tuzla — Graph

°F

Tuzla Temperature Yesterday

Maximum temperature yesterday: 55 °F (at 3:00 PM)
Minimum temperature yesterday: 34 °F (at 9:30 PM)
Average temperature yesterday: 45 °F

High & Low Weather Summary for the Past Weeks

 TemperatureHumidityPressure
High66 °F (Feb 1, 1:30 PM)100% (Jan 30, 7:30 PM)30.42 "Hg (Jan 30, 7:30 PM)
Low19 °F (Feb 6, 6:00 AM)32% (Feb 14, 2:00 PM)29.24 "Hg (Feb 10, 9:00 AM)
Average44 °F77%29.96 "Hg
* Reported Jan 30 2:00 PM — Feb 14 2:30 PM, Tuzla, Weather by CustomWeather, © 2016

Note: Actual official high and low records may vary slightly from our data, if they occured in-between our weather recording intervals... More about our weather records

Advertising

Tuzla Weather History for the Previous 24 Hours

 ConditionsComfort  
Time TempWeatherWind HumidityBarometerVisibility
2:30 PM
Sun, Feb 14
66 °FPartly sunny.10 mph32%29.39 "HgN/A
2:00 PM66 °FPartly sunny.14 mph32%29.39 "HgN/A
1:30 PM64 °FPartly sunny.8 mph34%29.42 "HgN/A
1:00 PM61 °FPartly sunny.2 mph48%29.42 "HgN/A
12:30 PM63 °FPartly sunny.5 mph39%29.45 "HgN/A
12:00 PM61 °FScattered clouds.5 mph45%29.45 "HgN/A
11:00 AM59 °FPassing clouds.5 mph59%29.47 "HgN/A
10:00 AM50 °FPassing clouds.2 mph100%29.47 "HgN/A
9:00 AM41 °FPassing clouds.2 mph100%29.47 "HgN/A
8:00 AM36 °FPassing clouds.1 mph100%29.47 "HgN/A
7:00 AM34 °FPassing clouds.2 mph100%29.47 "Hg5 mi
6:00 AM34 °FClear.5 mph100%29.47 "Hg4 mi
5:30 AM36 °FClear.2 mph100%29.47 "Hg4 mi
5:00 AM36 °FPassing clouds.1 mph100%29.47 "Hg4 mi
10:00 PM
Sat, Feb 13
36 °FClear.1 mph100%29.47 "Hg10 mi
9:30 PM34 °FClear.1 mph100%29.47 "Hg10 mi
9:00 PM36 °FClear.1 mph100%29.47 "Hg10 mi
8:30 PM36 °FClear.5 mph100%29.47 "Hg10 mi
8:00 PM37 °FClear.2 mph100%29.47 "Hg10 mi
7:30 PM37 °FPassing clouds.3 mph100%29.47 "HgN/A
7:00 PM39 °FClear.2 mph100%29.50 "Hg10 mi
6:30 PM41 °FClear.2 mph93%29.50 "Hg10 mi
6:00 PM45 °FClear.2 mph81%29.47 "Hg10 mi
5:30 PM46 °FPassing clouds.5 mph71%29.47 "HgN/A
5:00 PM48 °FPassing clouds.8 mph66%29.45 "HgN/A
4:30 PM50 °FPassing clouds.13 mph67%29.45 "HgN/A
4:00 PM52 °FPassing clouds.13 mph62%29.42 "HgN/A
3:30 PM54 °FPassing clouds.13 mph58%29.39 "HgN/A
3:00 PM55 °FPassing clouds.8 mph59%29.39 "HgN/A
Weather by CustomWeather, © 2016

See weather overviewHow to use our weather pages